Regional Weather Roundup
Issued by NWS

Current Version | Previous Version | Text Only | Print | Product List | Glossary On
Versions: 1 2 3 4 5 6 7 8 9 10 11 12 13 14 15 16 17 18 19 20 21 22 23 24 25 26 27 28 29 30 31 32 33 34 35 36 37 38 39 40 41 42 43 44 45 46 47 48 49 50
000
ASUS44 KMEG 291400
RWRTN
TENNESSEE HOURLY STATE WEATHER ROUNDUP
NATIONAL WEATHER SERVICE MEMPHIS TN
900 AM CDT FRI JUL 29 2016

TNZ002-004-019-021-049-052-054-088>092-291500-
WEST TENNESSEE

CITY           SKY/WX    TMP DP  RH WIND       PRES   REMARKS
MEMPHIS INTL   CLOUDY    79  72  79 VRB7G20   30.00R
NWS MEMPHIS      N/A     78 N/A N/A MISG        N/A
JACKSON        CLOUDY    77  74  90 SW6       30.00R
DYERSBURG        N/A    N/A N/A N/A MISG        N/A
UNION CITY     CLOUDY    79  77  94 SW9       29.96S
PARIS          CLOUDY    75  73  94 SW8       29.98S
LEXINGTON      CLOUDY    75  72  88 SW10      29.99S
$$

TNZ008-025-027-028-033-062-065-066-291500-
NORTH MIDDLE TENNESSEE

CITY           SKY/WX    TMP DP  RH WIND       PRES   REMARKS
NASHVILLE      CLOUDY    80  73  79 S8        29.99R
CLARKSVILLE    CLOUDY    79  74  84 SW9       29.97R
COOKEVILLE     MOSUNNY   75  72  88 SW5       30.00S
CROSSVILLE     MOSUNNY   73  69  87 VRB3      30.05F
$$

TNZ061-075-076-078-094-096-097-291500-
SOUTH MIDDLE TENNESSEE

CITY           SKY/WX    TMP DP  RH WIND       PRES   REMARKS
TULLAHOMA      CLOUDY    73  73 100 SW7       30.04S
WINCHESTER     CLOUDY    75  73  94 SW3       30.03S
MCMINNVILLE    PTSUNNY   75  75 100 VRB7      30.02S
COLUMBIA       CLOUDY   N/A N/A N/A SW9       29.99R
SHELBYVILLE    CLOUDY    79  75  89 S7        30.02S
$$

TNZ017-018-042-046-047-291500-
NORTHEAST TENNESSEE

CITY           SKY/WX    TMP DP  RH WIND       PRES   REMARKS
TRI CITIES     CLOUDY    73  68  84 SW7       30.05S
$$

TNZ012-013-036-069-073-074-291500-
CENTRAL EAST TENNESSEE

CITY           SKY/WX    TMP DP  RH WIND       PRES   REMARKS
KNOXVILLE      CLOUDY    76  71  85 S9        30.00F
OAK RIDGE      CLOUDY    77  72  84 VRB3      30.02F
GATLINBURG     CLOUDY    79  70  73 SW5       30.02R
$$

TNZ083-085-099-291500-
SOUTHEAST TENNESSEE

CITY           SKY/WX    TMP DP  RH WIND       PRES   REMARKS
CHATTANOOGA    PTSUNNY   81  70  69 SW8       30.01F
$$

SKY/WX REPORTED AS FAIR MEANS FEW OR NO CLOUDS BELOW
12 THOUSAND FEET.




USA.gov is the U.S. government's official web portal to all federal, state and local government web resources and services.